Weather History for KFIG - November, 2013

Change the Weather History Date:

Friday, November 8, 2013

  Actual Average (KDUJ) Record (KDUJ)
Temperature  
Mean Temperature 36 °F 42 °F  
Max Temperature 39 °F 50 °F 68 °F (2011)
Min Temperature 28 °F 34 °F 16 °F (1976)
Degree Days  
Heating Degree Days 30 23  
Month to date heating degree days 175  
Since 1 July heating degree days 918  
Cooling Degree Days 0 0  
Month to date cooling degree days 0  
Year to date cooling degree days 362  
Moisture  
Dew Point 29 °F    
Average Humidity 80    
Maximum Humidity 100    
Minimum Humidity 57    
Precipitation  
Precipitation 0.02 in 0.12 in 1.99 in (1997)
Month to date precipitation 0.95  
Sea Level Pressure  
Sea Level Pressure 30.15 in    
Wind  
Wind Speed 8 mph (West)    
Max Wind Speed 16 mph    
Max Gust Speed 28 mph    
Visibility 8 miles    
Events Snow    
T = Trace of Precipitation, MM = Missing Value Source: NWS Daily Summary

Daily Weather History Graph

Daily Weather History Graph

Search for Another Location

Airport or City:

Trip Planner

Search our weather history database for the weather conditions in past years. The results will help you decide how hot, cold, wet, or windy it might be!

Date:

Astronomy

Nov. 08, 2013 Rise Set
Actual Time 6:53 AM EST 5:01 PM EST
Civil Twilight 6:24 AM EST 5:30 PM EST
Nautical Twilight 5:51 AM EST 6:03 PM EST
Astronomical Twilight 5:18 AM EST 6:35 PM EST
Moon 11:47 AM EST (11/8) 10:20 PM EST (11/8)
Length of Visible Light 11h 06m
Length of Day
10h 08m
Waxing Crescent, 33% of the Moon is Illuminated
Nov 8
Waxing Crescent
Nov 10
First Quarter
Nov 17
Full
Nov 25
Last Quarter
Dec 2
New

Hourly Weather History & Observations

Time (EST) Temp. Windchill Dew Point Humidity Pressure Visibility Wind Dir Wind Speed Gust Speed Precip Events Conditions
12:54 AM 34.0 °F 27.2 °F 28.0 °F 79% 30.06 in 10.0 mi WSW 8.1 mph - N/A   Overcast
1:17 AM 34.0 °F 28.0 °F 30.0 °F 85% 30.02 in 3.0 mi WSW 6.9 mph - 0.00 in Snow Light Snow
1:54 AM 34.0 °F 28.0 °F 32.0 °F 92% 30.05 in 8.0 mi WSW 6.9 mph - 0.00 in Snow Light Snow
2:03 AM 34.0 °F 26.6 °F 32.0 °F 92% 30.01 in 9.0 mi WSW 9.2 mph - 0.00 in   Overcast
2:14 AM 35.1 °F 28.6 °F 32.0 °F 89% 30.02 in 10.0 mi West 8.1 mph 19.6 mph 0.00 in   Overcast
2:54 AM 35.1 °F 27.4 °F 30.9 °F 85% 30.04 in 10.0 mi West 10.4 mph 18.4 mph 0.00 in   Overcast
3:45 AM 34.0 °F 27.2 °F 30.0 °F 85% 30.01 in 10.0 mi WSW 8.1 mph - N/A   Mostly Cloudy
3:54 AM 33.1 °F 27.7 °F 30.0 °F 89% 30.04 in 10.0 mi SSW 5.8 mph - N/A   Overcast
4:42 AM 34.0 °F 23.8 °F 30.0 °F 85% 30.02 in 10.0 mi WSW 16.1 mph 21.9 mph N/A   Overcast
4:54 AM 35.1 °F 27.9 °F 30.0 °F 82% 30.06 in 9.0 mi West 9.2 mph - 0.00 in Snow Light Snow
5:54 AM 34.0 °F 28.8 °F 30.0 °F 85% 30.09 in 10.0 mi West 5.8 mph - 0.00 in   Mostly Cloudy
6:25 AM 34.0 °F 29.8 °F 30.0 °F 85% 30.06 in 10.0 mi West 4.6 mph - N/A   Overcast
6:54 AM 34.0 °F 27.2 °F 30.0 °F 85% 30.12 in 10.0 mi West 8.1 mph - N/A   Overcast
7:50 AM 35.6 °F 27.1 °F 28.4 °F 75% 30.10 in 10.0 mi West 12.7 mph 19.6 mph 0.00 in   Overcast
7:54 AM 35.1 °F 27.9 °F 28.9 °F 78% 30.14 in 10.0 mi WSW 9.2 mph 19.6 mph 0.00 in   Overcast
8:12 AM 36.0 °F 29.6 °F 30.0 °F 79% 30.11 in 9.0 mi West 8.1 mph - 0.00 in   Overcast
8:54 AM 36.0 °F 29.0 °F 28.0 °F 73% 30.17 in 10.0 mi WNW 9.2 mph 20.7 mph 0.00 in   Overcast
9:54 AM 37.0 °F 29.8 °F 28.0 °F 70% 30.18 in 10.0 mi West 10.4 mph - 0.00 in   Overcast
10:15 AM 36.0 °F 29.0 °F 28.0 °F 73% 30.15 in 10.0 mi West 9.2 mph - N/A   Overcast
10:32 AM 37.0 °F 28.9 °F 28.0 °F 70% 30.15 in 10.0 mi West 12.7 mph 19.6 mph 0.00 in   Overcast
10:39 AM 37.0 °F 30.4 °F 27.0 °F 67% 30.16 in 10.0 mi West 9.2 mph 23.0 mph 0.00 in   Overcast
10:54 AM 37.0 °F 28.5 °F 27.0 °F 67% 30.21 in 10.0 mi West 13.8 mph 27.6 mph 0.00 in Snow Light Snow
11:16 AM 36.0 °F 28.5 °F 28.0 °F 73% 30.17 in 2.5 mi WNW 10.4 mph 21.9 mph 0.00 in Snow Light Snow
11:54 AM 34.0 °F 28.8 °F 33.1 °F 96% 30.21 in 4.0 mi North 5.8 mph - 0.01 in Snow Light Snow
12:11 PM 34.0 °F 26.6 °F 33.1 °F 96% 30.17 in 1.8 mi North 9.2 mph - 0.00 in Snow Light Snow
12:20 PM 33.1 °F 26.9 °F 33.1 °F 100% 30.17 in 1.2 mi NNW 6.9 mph - 0.01 in Snow Light Snow
12:32 PM 34.0 °F 29.8 °F 33.1 °F 96% 30.17 in 3.0 mi North 4.6 mph - 0.01 in Snow Light Snow
12:43 PM 34.0 °F 29.8 °F 33.1 °F 96% 30.17 in 1.8 mi North 4.6 mph - 0.01 in Snow Light Snow
12:54 PM 34.0 °F 31.0 °F 34.0 °F 100% 30.22 in 2.5 mi Variable 3.5 mph - 0.01 in Snow Light Snow
1:01 PM 35.1 °F 26.4 °F 32.0 °F 89% 30.17 in 5.0 mi West 12.7 mph - 0.00 in Snow Light Snow
1:26 PM 37.9 °F 30.9 °F 33.1 °F 83% 30.16 in 10.0 mi WNW 10.4 mph 17.3 mph 0.00 in   Scattered Clouds
1:54 PM 39.0 °F 32.8 °F 28.9 °F 67% 30.20 in 10.0 mi West 9.2 mph - 0.00 in   Mostly Cloudy
2:54 PM 39.9 °F 33.9 °F 26.1 °F 58% 30.21 in 10.0 mi WNW 9.2 mph 21.9 mph N/A   Mostly Cloudy
3:54 PM 37.9 °F 30.0 °F 24.1 °F 57% 30.23 in 10.0 mi NW 12.7 mph 21.9 mph N/A   Mostly Cloudy
4:54 PM 37.9 °F 32.1 °F 27.0 °F 65% 30.23 in 10.0 mi West 8.1 mph - N/A   Overcast
5:54 PM 37.0 °F 32.4 °F 27.0 °F 67% 30.26 in 10.0 mi West 5.8 mph - N/A   Overcast
6:54 PM 35.1 °F 31.0 °F 27.0 °F 72% 30.28 in 10.0 mi West 4.6 mph - N/A   Mostly Cloudy
7:54 PM 36.0 °F 30.3 °F 27.0 °F 70% 30.28 in 10.0 mi West 6.9 mph - N/A   Overcast
8:54 PM 35.1 °F 27.4 °F 27.0 °F 72% 30.28 in 10.0 mi WSW 10.4 mph - N/A   Mostly Cloudy
9:54 PM 34.0 °F 28.0 °F 25.0 °F 70% 30.29 in 10.0 mi WSW 6.9 mph - N/A   Mostly Cloudy
10:54 PM 32.0 °F 27.5 °F 23.0 °F 69% 30.29 in 10.0 mi West 4.6 mph - N/A   Clear
11:54 PM 28.9 °F 25.2 °F 24.1 °F 82% 30.30 in 10.0 mi SSW 3.5 mph - N/A   Clear